Regional Weather Roundup
Issued by NWS

Home | Current Version | Previous Version | Text Only | Print | Product List | Glossary On
Versions: 1 2 3 4 5 6 7 8 9 10 11 12 13 14 15 16 17 18 19 20 21 22 23 24 25 26 27 28 29 30 31 32 33 34 35 36 37 38 39 40 41 42 43 44 45 46 47 48 49 50
000
ASUS43 KMKX 300311
RWRWI

WISCONSIN REGIONAL WEATHER ROUNDUP
NATIONAL WEATHER SERVICE MILWAUKEE/SULLIVAN WI
1000 PM CDT SUN MAY 29 2016

NOTE: "FAIR" INDICATES FEW OR NO CLOUDS BELOW 12,000 FEET WITH NO
SIGNIFICANT WEATHER AND/OR OBSTRUCTIONS TO VISIBILITY.

WIZ001-002-006>008-014>016-023>028-300400-
NORTHWEST WISCONSIN

CITY           SKY/WX    TMP DP  RH WIND       PRES   REMARKS
SUPERIOR ARPT  CLEAR     54  52  92 SW5       29.92R
ASHLAND        CLEAR     55  52  89 CALM      29.92R
HAYWARD        CLEAR     57  54  89 CALM      29.95R
SIREN          PTCLDY    59  54  84 CALM      29.96R
CUMBERLAND     PTCLDY    59  55  88 CALM      29.96R
RICE LAKE      PTCLDY    63  58  83 CALM      29.97R
CHETEK         PTCLDY    59  59 100 CALM      29.95R FOG
LADYSMITH      CLEAR     63  57  80 CALM      29.97R
EAU CLAIRE     CLEAR     64  57  78 SW3       29.94R
MENOMONIE      CLOUDY    66  56  70 W3        29.96R
NEW RICHMOND   CLEAR     62  55  76 W5        29.97R
OSCEOLA        CLEAR     64  55  73 SW5       29.98R
$$

WIZ003>005-009-010-017-018-300400-
NORTH CENTRAL WISCONSIN

CITY           SKY/WX    TMP DP  RH WIND       PRES   REMARKS
MANITOWISH WTR NOT AVBL
ARBOR VITAE    CLEAR     59  58  95 CALM      29.94S
WOODRUFF       CLEAR     59  58  95 CALM      29.94S
RHINELANDER    CLEAR     55  53  93 W3        29.95R
EAGLE RIVER    FOG       56  55  99 CALM      29.93F VSB 1
LAND O LAKES   PTCLDY    57  56  97 CALM      29.94S
PHILLIPS       PTCLDY    58  56  96 CALM      29.94R
TOMAHAWK       CLEAR     55  54  94 CALM      29.95R
MEDFORD        CLEAR     61  57  88 SW3       29.95R
MERRILL        PTCLDY    57  55  94 CALM      29.95R
$$

WIZ029-030-035-036-043>047-300400-
CENTRAL WISCONSIN

CITY           SKY/WX    TMP DP  RH WIND       PRES   REMARKS
WAUSAU         CLEAR     65  55  70 CALM      29.93R
MOSINEE        CLEAR     63  55  77 W6        29.96R
MARSHFIELD     CLEAR     61  56  83 W6        29.95R
STEVENS POINT  CLEAR     59  56  89 CALM      29.96R
WAUPACA        CLEAR     65  58  78 CALM      29.95R
WAUTOMA        NOT AVBL
WISC RAPIDS    CLEAR     61  55  81 CALM      29.97R
CAMP DOUGLAS   CLEAR     62  62 100 CALM      29.96R
$$

WIZ011>013-019>022-031-037>040-048>050-300400-
NORTHEAST WISCONSIN

CITY           SKY/WX    TMP DP  RH WIND       PRES   REMARKS
ANTIGO         PTCLDY    59  55  85 CALM      29.95R
SHAWANO        CLEAR     67  58  73 CALM      29.93R
OCONTO         CLEAR     62  62 100 CALM      29.91R
STURGEON BAY   NOT AVBL
GREEN BAY      CLEAR     68  58  70 W6        29.93R
MANITOWOC      CLEAR     64  61  90 W3        29.94R
APPLETON       PTCLDY    64  54  68 W6        29.94R
CLINTONVILLE   CLEAR     64  54  68 W5        29.94R
OSHKOSH        CLEAR     67  56  67 CALM      29.95R
$$

WIZ032>034-041-042-053>061-300400-
SOUTHWEST WISCONSIN

CITY           SKY/WX    TMP DP  RH WIND       PRES   REMARKS
LA CROSSE      CLEAR     66  58  75 CALM      29.96R
SPARTA         CLEAR     61  57  87 CALM      29.98R
VIROQUA        CLEAR     64  60  84 SW6       30.00R
BOSCOBEL       CLEAR     66  61  84 CALM      29.99R
PRAIRIE DU CHI CLEAR     64  59  82 CALM      29.99R
PLATTEVILLE    CLEAR     66  60  78 SW6       30.00R
$$

WIZ056-057-062-063-064-067-068-300400-
SOUTH CENTRAL WISCONSIN

CITY           SKY/WX    TMP DP  RH WIND       PRES   REMARKS
REEDSBURG      CLOUDY    65  62  90 CALM      29.97R
BARABOO/DELLS  CLOUDY    65  58  79 SW6       29.98R
LONE ROCK      PTCLDY    64  61  90 CALM      29.99R
MINERAL POINT  CLEAR     68  59  73 W5        30.01R
MADISON        TSTM      65  59  81 VRB7      29.98R
MIDDLETON      CLOUDY    67  59  76 CALM      29.99R
WATERTOWN      PTCLDY    66  59  78 SW5       29.97R
MONROE         CLEAR     68  57  68 SW8       29.99R
JANESVILLE     NOT AVBL
$$

WIZ051-052-058>065-066-070>072-300400-
SOUTHEAST WISCONSIN

CITY           SKY/WX    TMP DP  RH WIND       PRES   REMARKS
MILWAUKEE      PTCLDY    71  57  61 W6        29.97R
WAUKESHA       CLEAR     64  55  72 SW5       29.99R
MILWAUKEE/TIMM CLEAR     68  54  60 SW6       29.97R
RACINE         CLEAR     70  56  61 W5        29.99R
BURLINGTON     PTCLDY    66  58  75 CALM      29.99R
KENOSHA        MOCLDY    67  58  72 W5        29.98R
FOND DU LAC    PTCLDY    68  58  70 SW5       29.95R
SHEBOYGAN      PTCLDY    64  57  78 W6        29.94R
WEST BEND      CLEAR     68  55  64 W6        29.96R
JUNEAU         PTCLDY    65  59  79 SW7       29.98R
$$

LSZ147-162-300400-
LAKE SUPERIOR

STATION/POSITION TIME  TEMP    WIND        PRES    WAVE
                       AIR SEA DIR/SP/G            HT/PER
                 (UTC) (F)     (DEG/KT/KT) (MB)    (FT/S)
W MID LAKE BUOY  0250   44 38  250/ 12/ 12 1011.9R   1/ 4
DEVILS ISLAND    0200   51     230/ 10/ 12 1012.3R
PORT WING        0100   60     270/  8/ 10 1012.5
SAXON HARBOR     0240   59     200/  4/ 25 1012.5R
$$

LMZ867-665-643>646-300400-
LAKE MICHIGAN

STATION/POSITION TIME  TEMP    WIND        PRES    WAVE
                       AIR SEA DIR/SP/G            HT/PER
                 (UTC) (F)     (DEG/KT/KT) (MB)    (FT/S)
CHAMBERS ISLAND  0200   63      CALM  /  3 1012.2R
N MID LAKE BUOY  0250   52 48  220/  8/  8 1011.7R   2/ 5
NORTHPORT PIER   0200   63     270/  5/  8 1011.5F
KEWAUNEE LAKESHO 0200   71                   N/A
SHEBOYGAN LAKESH 0300   71     240/  7/  7 1014.1R
PORT WASHINGTON  0240   72     250/  5/  7 1014.6R
S MID LAKE BUOY  0250   57 51  230/  8/  8 1014.3R   1
KENOSHA   LAKESH 0300   74     260/  4/  7 1014.9R
$$

TC  - TEMPERATURE IN CELSIUS
VSB - VISIBILITY IN STATUTE MILES
WCI - WIND CHILL INDEX
HX  - HEAT INDEX




USA.gov is the U.S. government's official web portal to all federal, state and local government web resources and services.